Regional Weather Roundup
Issued by NWS New Orleans/Baton Rouge, LA

Home | Current Version | Previous Version | Graphics & Text | Print | Product List | Glossary On
Versions: 1 2 3 4 5 6 7 8 9 10 11 12 13 14 15 16 17 18 19 20 21 22 23 24 25 26 27 28 29 30 31 32 33 34 35 36 37 38 39 40 41 42 43 44 45 46 47 48 49 50
717
ASUS44 KLIX 221701
RWRLIX
NEW ORLEANS REGIONAL WEATHER ROUNDUP
NATIONAL WEATHER SERVICE NEW ORLEANS LA
1100 AM CST SAT NOV 22 2014

NOTE: "FAIR" INDICATES FEW OR NO CLOUDS BELOW 12,000 FEET WITH NO
      SIGNIFICANT WEATHER AND/OR OBSTRUCTIONS TO VISIBILITY.
      SKY/WX - SKY CONDITION AND SIGNIFICANT WEATHER.
      TMP - AIR TEMPERATURE.     DP    - DEWPOINT TEMPERATURE.
      RH  - RELATIVE HUMIDITY.   PRES  - PRESSURE.
      HI  - HEAT INDEX.          WCI   - WIND CHILL INDEX.

*  THESE STATIONS ARE NOT NWS OR FAA STATIONS AND ARE NOT UNDER
   NWS QUALITY CONTROL.

LAZ038-040-048-061>063-065>067-069-221800-
SOUTHEAST LOUISIANA

CITY           SKY/WX    TMP DP  RH WIND       PRES   REMARKS
N.O. AUDUBON     N/A     67  60  77 MISG        N/A
N.O. INTL ARPT CLOUDY    68  58  70 E14G21    30.19F
N.O. LAKEFRONT CLOUDY    65  56  72 E15       30.20F
N.O. DOWNTOWN*   N/A     64  55  72 CALM      30.20F
SLIDELL        PTSUNNY   69  56  62 SE12      30.21F
BATON ROUGE    CLOUDY    66  55  67 E15       30.16F
BOOTHVILLE     CLOUDY    69  64  84 E12       30.20F
BELLE CHASSE   CLOUDY    70  58  65 E16G24    30.18F
BOGALUSA*        N/A     69  52  54 E7        30.23F
NEW ROADS*     NOT AVBL
GONZALES*      NOT AVBL
HAMMOND*       NOT AVBL
HOUMA*         CLOUDY    70  61  73 E21       30.17F
PORT FOURCHON* SUNNY     68  63  83 E10       30.19F

$$

MSZ070-080>082-221800-
SOUTHERN MISSISSIPPI

CITY           SKY/WX    TMP DP  RH WIND       PRES   REMARKS
MCCOMB         CLOUDY    65  52  62 SE12G17   30.21F
GULFPORT       MOSUNNY   68  55  63 E22       30.22F
BILOXI         MOSUNNY   70  56  59 E16G22    30.22F
PASCAGOULA     MOSUNNY   69  53  56 E10       30.23F
STENNIS ARPT*  SUNNY     66  52  59 SE9G18    30.22F

$$

COASTAL OBSERVATIONS
LAKE AND NEARSHORE STATIONS

STATION/POSITION TIME  TEMP    WIND        PRES    WAVE
                       AIR SEA DIR/SP/G            HT/PER
                 (UTC) (F)     (DEG/KT/KT) (MB)    (FT/S)
PASCAGOULA       1600   64      70/ 15/ 20 1023.6
WAVELAND YACHT   1600   63     110/ 19/ 24 1022.6
GRAND ISLE       1600   67 61   80/  8/ 13 1022.6
SOUTHWEST PASS   1600   72 71              1022.3
NEW CANAL        1600   64 54   80/  5/ 12 1023.2
SHELL BEACH      1600   65 51   90/ 15/ 17 1022.7

OFFSHORE STATIONS

STATION/POSITION TIME  TEMP    WIND        PRES    WAVE
                       AIR SEA DIR/SP/G            HT/PER
                 (UTC) (F)     (DEG/KT/KT) (MB)    (FT/S)
64 S DAUPHIN ISL 1641   70 73  100/ 19/ 23 1022.9    7/ 7

$$




USA.gov is the U.S. government's official web portal to all federal, state and local government web resources and services.